TimeCST,TemperatureF,Dew PointF,Humidity,Sea Level PressureIn,VisibilityMPH,Wind Direction,Wind SpeedMPH,Gust SpeedMPH,PrecipitationIn,Events,Conditions,WindDirDegrees,DateUTC
6:00 AM,71,69,93,29.90,12,SSE,3.5,,,,Clear,150,2012-09-28 12:00:00
6:00 AM,71.6,69.8,94,29.89,-9999.0,SSE,3.5,-,N/A,,Clear,150,2012-09-28 12:00:00
7:00 AM,75.2,71.6,89,29.90,6.2,SSE,3.5,-,N/A,,Scattered Clouds,160,2012-09-28 13:00:00
8:00 AM,78.8,73.4,83,29.93,6.2,East,3.5,-,N/A,,Scattered Clouds,90,2012-09-28 14:00:00
9:00 AM,82,73,67,29.93,12,Calm,Calm,,,,Scattered Clouds,,2012-09-28 15:00:00
9:00 AM,82.4,73.4,74,29.92,6.2,Calm,Calm,-,N/A,,Mostly Cloudy,0,2012-09-28 15:00:00
10:00 AM,84.2,73.4,70,29.90,6.2,SE,3.5,-,N/A,,Scattered Clouds,140,2012-09-28 16:00:00
11:00 AM,82.4,75.2,79,29.89,6.2,NW,4.6,-,N/A,,Scattered Clouds,320,2012-09-28 17:00:00
12:00 PM,86,75,64,29.87,12,SSW,4.6,,,,Partly Cloudy,200,2012-09-28 18:00:00
12:00 PM,86.0,75.2,70,29.86,6.2,SSW,4.6,-,N/A,,Mostly Cloudy,200,2012-09-28 18:00:00
1:00 PM,87.8,73.4,62,29.83,6.2,South,4.6,-,N/A,,Mostly Cloudy,180,2012-09-28 19:00:00
2:00 PM,89.6,73.4,59,29.81,6.2,SW,2.3,-,N/A,,Mostly Cloudy,220,2012-09-28 20:00:00
3:00 PM,88,73,52,29.82,11,South,4.6,,,,Overcast,170,2012-09-28 21:00:00
3:00 PM,87.8,73.4,62,29.80,6.2,South,4.6,-,N/A,,Scattered Clouds,170,2012-09-28 21:00:00
3:25 PM,86.0,75.2,70,29.80,6.2,WSW,3.5,-,N/A,Rain,Rain,240,2012-09-28 21:25:00
3:40 PM,78.8,75.2,89,29.80,1.2,NW,8.1,-,N/A,Rain,Rain Showers,320,2012-09-28 21:40:00
3:45 PM,77.0,75.2,94,29.81,0.6,East,9.2,-,N/A,Rain-Thunderstorm,Rain Showers,80,2012-09-28 21:45:00
4:00 PM,75.2,73.4,94,29.82,3.1,East,12.7,-,N/A,Rain-Thunderstorm,Rain Showers,80,2012-09-28 22:00:00
4:10 PM,71.6,71.6,100,29.84,6.2,East,15.0,-,N/A,Rain-Thunderstorm,Light Thunderstorms and Rain,100,2012-09-28 22:10:00
5:00 PM,73.4,71.6,94,29.84,6.2,South,4.6,-,N/A,Rain,Light Rain,190,2012-09-28 23:00:00
6:00 PM,74,72,94,29.86,12,Calm,Calm,,,,Partly Cloudy,,2012-09-29 00:00:00
6:00 PM,73.4,73.4,100,29.85,6.2,Calm,Calm,-,N/A,,Mostly Cloudy,0,2012-09-29 00:00:00
7:00 PM,73.4,73.4,100,29.85,6.2,WSW,2.3,-,N/A,,Mostly Cloudy,250,2012-09-29 01:00:00
8:00 PM,73.4,73.4,100,29.85,6.2,Calm,Calm,-,N/A,,Mostly Cloudy,0,2012-09-29 02:00:00